Showing default

OPS 4467 B, 813

Orbit data source: Space-Track

OPS 4467 B, 813 is an American payload satellite in SSO that was launched on Thu, 18 Jun 1964 UTC via a THOR SLV-2 AGENA D launch vehicle from the Air Force Western Test Range (AFWTR). Payload-class satellites include a variety of spacecraft equipped with specific instruments for various scientific and technological missions. These include communications satellites like Starlink; space stations such as the ISS; scientific satellites like the Hubble; Earth observation satellites from companies like Planet Labs, Umbra, and HawkEye 360; GPS; miniature CubeSats for education and research; and military/defense satellites.

Loading next visibility...
Identifier
813, 1964-031B
Orbit
SSO
Country
Flag of USUS
Related business
Manufacturer
RCA/East Windsor
Mission
Defense Weather
Bus & Motor
P35, Unknown motor
Mass
50 kg wet, 50 kg dry
Launch date (UTC)
1964-06-18 (61 years ago)
Launch vehicle
THOR SLV-2 AGENA D
Launch site
Air Force Western Test Range (AFWTR)
Object type
Payload
Rocket body
Debris
Shape & HBR
Cyl, 0.3 m
Radar Cross Section
0.377 m², Medium (>0.1 m² and < 1m²)

Expand to show TLE details & history
Last TLE update: 7 hours ago

TLE from 7 hours ago
0 OPS 4467 B
1 00813U 64031B   25261.17092836  .00000065  00000-0  52030-4 0  9993
2 00813  99.7926  17.9090 0004906 210.5044 149.5846 14.23620978176224
Epoch: 2025-09-18T04:06Z
TLE epoch observation values (Epoch: 2025-09-18T04:06:08.21Z)
Latitude
-0.00002°
Longitude
-40.96156°
Altitude
819.059 km
Speed
7.442 km/s
True Right ascension
01h 11m 38s
True Declination
0° 00' 00"
Sunlit
Object was in full shadow at epoch
Visualization orbit readout
Latitude
Unknown
Longitude
Unknown
Altitude
Unknown
Speed
Unknown
Apparent Right ascension
Unknown
Apparent Declination
Unknown
Sunlit
N/A
Visualization observer readout
Local Sidereal Time
04:16:40
Azimuth
Unknown
Elevation
Unknown
Doppler factor
Unknown
Orbital elements
Apogee altitude
813.868 km
Perigee altitude
806.815 km
Semi-major axis
7,188.479 km
Eccentricity
0.00049
Inclination
99.7926°
RAAN
17.909°
Arg. of periapsis
210.5044°
True anomaly
149.61305°
Mean anomaly
149.5846°
Eccentric anomaly
149.59882°
Mean motion
3.56113 °/min
Orbital period
101.09 mins
BSTAR
0.00005203
Loading maneuver chart data...
Computing Atmospheric mass density...
Loading historical data...
Loading historical data...
Loading historical data...
Loading historical data...
Loading historical data...
Loading historical data...
Loading historical data...
Other satellites on launch #31 in the year 1964 (1964-06-18 UTC)

Documentation

Showing up to 5 results
|